FAB2526 SBBR-SBDN

Flight info

Callsign FAB2526
Flight time 1h 10m
Altitude 36000
Route KUKOL UM532 GEKEM
Aircraft E145/M-SDFGHRWY/S

Departure

Time 2026-04-29 22:04
Airport Presidente Juscelino Kubitschek International Airport (SBBR)

Arrival

Time 2026-04-29 23:15
Airport Presidente Prudente Airport (SBDN)
Time Latitude Longitude Altitude Speed Heading
2026-04-29 21:24 -15.86668 -47.90557 3475 ft 0 kts 86°
2026-04-29 21:41 -15.86668 -47.90556 3475 ft 0 kts 86°
2026-04-29 21:53 -15.86668 -47.90554 3475 ft 2 kts 86°
2026-04-29 21:54 -15.86665 -47.90539 3474 ft 1 kts 63°
2026-04-29 21:54 -15.86665 -47.90538 3474 ft 0 kts 59°
2026-04-29 21:54 -15.86664 -47.90538 3473 ft 0 kts 56°
2026-04-29 21:55 -15.86661 -47.90534 3474 ft 1 kts 41°
2026-04-29 21:55 -15.86653 -47.90530 3475 ft 1 kts
2026-04-29 21:55 -15.86640 -47.90529 3476 ft 3 kts 360°
2026-04-29 21:55 -15.86610 -47.90531 3476 ft 6 kts 356°
2026-04-29 21:56 -15.86572 -47.90536 3476 ft 5 kts 332°
2026-04-29 21:56 -15.86559 -47.90579 3477 ft 9 kts 270°
2026-04-29 21:56 -15.86533 -47.90614 3478 ft 3 kts 329°
2026-04-29 21:56 -15.86526 -47.90632 3515 ft 4 kts 269°
2026-04-29 21:57 -15.86529 -47.90685 3477 ft 11 kts 266°
2026-04-29 21:57 -15.86536 -47.90784 3476 ft 16 kts 266°
2026-04-29 21:57 -15.86543 -47.90902 3474 ft 17 kts 266°
2026-04-29 21:57 -15.86550 -47.91020 3472 ft 10 kts 266°
2026-04-29 21:58 -15.86533 -47.91081 3471 ft 9 kts 335°
2026-04-29 21:58 -15.86477 -47.91087 3473 ft 8 kts 346°
2026-04-29 21:58 -15.86448 -47.91125 3473 ft 7 kts 274°
2026-04-29 21:58 -15.86451 -47.91183 3472 ft 9 kts 266°
2026-04-29 21:59 -15.86455 -47.91253 3471 ft 10 kts 266°
2026-04-29 21:59 -15.86461 -47.91333 3470 ft 12 kts 266°
2026-04-29 21:59 -15.86467 -47.91426 3467 ft 14 kts 266°
2026-04-29 21:59 -15.86474 -47.91528 3467 ft 15 kts 266°
2026-04-29 22:00 -15.86481 -47.91642 3464 ft 17 kts 266°
2026-04-29 22:00 -15.86490 -47.91768 3463 ft 18 kts 266°
2026-04-29 22:00 -15.86498 -47.91900 3461 ft 19 kts 266°
2026-04-29 22:00 -15.86507 -47.92043 3458 ft 21 kts 266°
2026-04-29 22:01 -15.86517 -47.92199 3456 ft 22 kts 266°
2026-04-29 22:01 -15.86527 -47.92357 3456 ft 22 kts 266°
2026-04-29 22:01 -15.86537 -47.92515 3456 ft 22 kts 266°
2026-04-29 22:01 -15.86545 -47.92644 3456 ft 16 kts 266°
2026-04-29 22:02 -15.86550 -47.92722 3458 ft 9 kts 271°
2026-04-29 22:02 -15.86514 -47.92761 3457 ft 8 kts 352°
2026-04-29 22:02 -15.86454 -47.92765 3456 ft 9 kts 356°
2026-04-29 22:02 -15.86400 -47.92746 3458 ft 9 kts 44°
2026-04-29 22:03 -15.86359 -47.92700 3455 ft 8 kts 64°
2026-04-29 22:03 -15.86350 -47.92630 3459 ft 15 kts 86°
2026-04-29 22:03 -15.86331 -47.92326 3459 ft 71 kts 86°
2026-04-29 22:03 -15.86287 -47.91632 3465 ft 120 kts 86°
2026-04-29 22:04 -15.86227 -47.90633 3523 ft 151 kts 86°
2026-04-29 22:04 -15.86173 -47.89515 3898 ft 156 kts 87°
2026-04-29 22:04 -15.86117 -47.88409 4447 ft 152 kts 89°
2026-04-29 22:04 -15.86385 -47.87331 4696 ft 168 kts 133°
2026-04-29 22:05 -15.87533 -47.86897 4840 ft 196 kts 184°
2026-04-29 22:05 -15.88902 -47.87274 5186 ft 209 kts 193°
2026-04-29 22:05 -15.92056 -47.87718 5918 ft 250 kts 176°
2026-04-29 22:06 -15.93813 -47.87512 6458 ft 265 kts 167°
2026-04-29 22:06 -15.95682 -47.87083 7109 ft 275 kts 165°
2026-04-29 22:06 -15.97528 -47.86618 7931 ft 279 kts 165°
2026-04-29 22:06 -15.99429 -47.86131 8625 ft 280 kts 166°
2026-04-29 22:07 -16.01332 -47.85662 8898 ft 284 kts 167°
2026-04-29 22:07 -16.03306 -47.85491 9012 ft 288 kts 190°
2026-04-29 22:07 -16.05086 -47.86389 9072 ft 288 kts 222°
2026-04-29 22:07 -16.06257 -47.88085 9473 ft 290 kts 240°
2026-04-29 22:08 -16.07167 -47.89963 10322 ft 293 kts 245°
2026-04-29 22:08 -16.07724 -47.92023 10936 ft 304 kts 263°
2026-04-29 22:08 -16.07844 -47.94251 11322 ft 321 kts 268°
2026-04-29 22:08 -16.07896 -47.96616 11892 ft 330 kts 268°
2026-04-29 22:09 -16.08252 -47.98979 12578 ft 335 kts 250°
2026-04-29 22:09 -16.09230 -48.01193 13267 ft 340 kts 242°
2026-04-29 22:09 -16.10402 -48.03347 13953 ft 344 kts 240°
2026-04-29 22:09 -16.11623 -48.05512 14558 ft 349 kts 240°
2026-04-29 22:10 -16.12855 -48.07703 15155 ft 353 kts 241°
2026-04-29 22:10 -16.14067 -48.09944 15760 ft 357 kts 242°
2026-04-29 22:10 -16.15270 -48.12215 16339 ft 361 kts 242°
2026-04-29 22:10 -16.16477 -48.14528 16915 ft 365 kts 243°
2026-04-29 22:11 -16.17700 -48.16858 17513 ft 369 kts 243°
2026-04-29 22:11 -16.18936 -48.19211 18074 ft 373 kts 243°
2026-04-29 22:11 -16.20185 -48.21595 18598 ft 376 kts 243°
2026-04-29 22:11 -16.21429 -48.23964 19109 ft 379 kts 243°
2026-04-29 22:12 -16.22696 -48.26381 19614 ft 381 kts 243°
2026-04-29 22:12 -16.24241 -48.28637 20074 ft 388 kts 224°
2026-04-29 22:12 -16.26494 -48.30193 20549 ft 392 kts 207°
2026-04-29 22:12 -16.29041 -48.31239 21024 ft 396 kts 198°
2026-04-29 22:13 -16.31697 -48.32066 21481 ft 399 kts 196°
2026-04-29 22:13 -16.34377 -48.32865 21920 ft 402 kts 197°
2026-04-29 22:13 -16.37066 -48.33715 22388 ft 405 kts 198°
2026-04-29 22:13 -16.39744 -48.34640 22827 ft 408 kts 199°
2026-04-29 22:14 -16.42449 -48.35594 23261 ft 411 kts 199°
2026-04-29 22:14 -16.45173 -48.36540 23674 ft 413 kts 199°
2026-04-29 22:14 -16.47909 -48.37490 24047 ft 415 kts 199°
2026-04-29 22:14 -16.50659 -48.38442 24424 ft 417 kts 199°
2026-04-29 22:15 -16.53380 -48.39386 24790 ft 418 kts 199°
2026-04-29 22:15 -16.56148 -48.40345 25150 ft 420 kts 199°
2026-04-29 22:15 -16.58924 -48.41307 25515 ft 421 kts 199°
2026-04-29 22:15 -16.61708 -48.42272 25859 ft 423 kts 199°
2026-04-29 22:16 -16.64504 -48.43244 26200 ft 424 kts 199°
2026-04-29 22:16 -16.67322 -48.44216 26530 ft 426 kts 199°
2026-04-29 22:16 -16.70108 -48.45278 26864 ft 427 kts 204°
2026-04-29 22:16 -16.72799 -48.46603 27180 ft 427 kts 208°
2026-04-29 22:17 -16.75438 -48.48036 27494 ft 429 kts 208°
2026-04-29 22:17 -16.78090 -48.49472 27804 ft 430 kts 208°
2026-04-29 22:17 -16.80773 -48.50881 28100 ft 432 kts 207°
2026-04-29 22:17 -16.83479 -48.52259 28404 ft 433 kts 207°
2026-04-29 22:18 -16.86193 -48.53641 28698 ft 435 kts 207°
2026-04-29 22:18 -16.88885 -48.55012 28964 ft 436 kts 207°
2026-04-29 22:18 -16.91628 -48.56408 29252 ft 437 kts 207°
2026-04-29 22:18 -16.94362 -48.57800 29525 ft 439 kts 207°
2026-04-29 22:19 -16.97107 -48.59199 29783 ft 440 kts 207°
2026-04-29 22:19 -16.99873 -48.60611 30030 ft 441 kts 207°
2026-04-29 22:19 -17.02637 -48.62021 30257 ft 442 kts 207°
2026-04-29 22:19 -17.05404 -48.63433 30467 ft 443 kts 207°
2026-04-29 22:20 -17.08185 -48.64853 30678 ft 444 kts 207°
2026-04-29 22:20 -17.10970 -48.66274 30887 ft 445 kts 207°
2026-04-29 22:20 -17.13755 -48.67697 31085 ft 446 kts 207°
2026-04-29 22:20 -17.16551 -48.69126 31286 ft 447 kts 207°
2026-04-29 22:21 -17.19351 -48.70557 31477 ft 448 kts 207°
2026-04-29 22:21 -17.22124 -48.71980 31631 ft 451 kts 208°
2026-04-29 22:21 -17.24951 -48.73437 31731 ft 453 kts 208°
2026-04-29 22:21 -17.27768 -48.74923 31974 ft 453 kts 209°
2026-04-29 22:22 -17.30562 -48.76433 32219 ft 452 kts 209°
2026-04-29 22:22 -17.33353 -48.77937 32464 ft 451 kts 209°
2026-04-29 22:22 -17.36137 -48.79440 32764 ft 447 kts 209°
2026-04-29 22:22 -17.38874 -48.80918 33346 ft 438 kts 210°
2026-04-29 22:23 -17.41559 -48.82367 33889 ft 429 kts 210°
2026-04-29 22:23 -17.44207 -48.83797 34201 ft 426 kts 210°
2026-04-29 22:23 -17.46808 -48.85205 34397 ft 425 kts 210°
2026-04-29 22:23 -17.49440 -48.86627 34600 ft 424 kts 210°
2026-04-29 22:24 -17.51214 -48.87585 34718 ft 424 kts 210°
2026-04-29 22:24 -17.54679 -48.89459 34972 ft 423 kts 210°
2026-04-29 22:24 -17.56409 -48.90394 35084 ft 422 kts 210°
2026-04-29 22:24 -17.59028 -48.91812 35266 ft 421 kts 210°
2026-04-29 22:25 -17.61633 -48.93221 35432 ft 421 kts 210°
2026-04-29 22:25 -17.66862 -48.96053 35511 ft 426 kts 210°
2026-04-29 22:26 -17.72179 -48.98932 35519 ft 434 kts 210°
2026-04-29 22:26 -17.77589 -49.01866 35533 ft 440 kts 210°
2026-04-29 22:27 -17.83062 -49.04775 35545 ft 447 kts 209°
2026-04-29 22:27 -17.85834 -49.06235 35711 ft 445 kts 209°
2026-04-29 22:27 -17.88605 -49.07698 35865 ft 445 kts 210°
2026-04-29 22:28 -17.94137 -49.10642 35963 ft 446 kts 210°
2026-04-29 22:28 -17.99686 -49.13596 35984 ft 448 kts 210°
2026-04-29 22:29 -18.05269 -49.16563 35987 ft 450 kts 210°
2026-04-29 22:29 -18.10876 -49.19549 35989 ft 452 kts 210°
2026-04-29 22:30 -18.16493 -49.22577 35988 ft 454 kts 210°
2026-04-29 22:30 -18.22120 -49.25626 35981 ft 456 kts 210°
2026-04-29 22:31 -18.27739 -49.28661 35983 ft 458 kts 210°
2026-04-29 22:31 -18.33419 -49.31732 35978 ft 459 kts 210°
2026-04-29 22:32 -18.39113 -49.34817 35978 ft 461 kts 210°
2026-04-29 22:32 -18.44822 -49.37909 35982 ft 462 kts 211°
2026-04-29 22:33 -18.50556 -49.41019 35972 ft 463 kts 211°
2026-04-29 22:33 -18.56285 -49.44126 35972 ft 464 kts 211°
2026-04-29 22:34 -18.62044 -49.47254 35964 ft 465 kts 211°
2026-04-29 22:34 -18.67795 -49.50379 35966 ft 465 kts 211°
2026-04-29 22:35 -18.73518 -49.53492 35961 ft 466 kts 211°
2026-04-29 22:35 -18.79285 -49.56630 35967 ft 466 kts 211°
2026-04-29 22:36 -18.85051 -49.59776 35970 ft 466 kts 211°
2026-04-29 22:36 -18.90810 -49.62939 35968 ft 467 kts 211°
2026-04-29 22:37 -18.96578 -49.66107 35966 ft 467 kts 211°
2026-04-29 22:37 -19.02352 -49.69278 35967 ft 467 kts 211°
2026-04-29 22:38 -19.08119 -49.72449 35962 ft 467 kts 211°
2026-04-29 22:38 -19.13891 -49.75624 35963 ft 467 kts 211°
2026-04-29 22:39 -19.19629 -49.78785 35964 ft 468 kts 211°
2026-04-29 22:39 -19.25410 -49.81971 35965 ft 468 kts 212°
2026-04-29 22:40 -19.31186 -49.85158 35958 ft 468 kts 212°
2026-04-29 22:40 -19.36963 -49.88342 35947 ft 467 kts 211°
2026-04-29 22:41 -19.42768 -49.91462 35957 ft 468 kts 211°
2026-04-29 22:41 -19.48543 -49.94557 35955 ft 468 kts 211°
2026-04-29 22:42 -19.54363 -49.97681 35953 ft 468 kts 211°
2026-04-29 22:42 -19.60171 -50.00794 35951 ft 468 kts 211°
2026-04-29 22:43 -19.65986 -50.03920 35951 ft 468 kts 211°
2026-04-29 22:43 -19.71795 -50.07042 35954 ft 468 kts 211°
2026-04-29 22:44 -19.77572 -50.10152 35955 ft 468 kts 211°
2026-04-29 22:44 -19.83384 -50.13277 35951 ft 468 kts 211°
2026-04-29 22:45 -19.89197 -50.16413 35953 ft 468 kts 211°
2026-04-29 22:45 -19.95015 -50.19550 35954 ft 468 kts 211°
2026-04-29 22:46 -20.00817 -50.22697 35955 ft 468 kts 211°
2026-04-29 22:46 -20.06637 -50.25820 35952 ft 468 kts 211°
2026-04-29 22:47 -20.12440 -50.28981 35950 ft 468 kts 211°
2026-04-29 22:47 -20.18212 -50.32107 35964 ft 468 kts 212°
2026-04-29 22:48 -20.24013 -50.35268 35961 ft 468 kts 212°
2026-04-29 22:48 -20.29809 -50.38426 35957 ft 468 kts 212°
2026-04-29 22:49 -20.35615 -50.41591 35962 ft 468 kts 212°
2026-04-29 22:49 -20.41420 -50.44757 35955 ft 468 kts 212°
2026-04-29 22:50 -20.47218 -50.47926 35956 ft 468 kts 212°
2026-04-29 22:50 -20.52974 -50.51068 35957 ft 468 kts 212°
2026-04-29 22:51 -20.58768 -50.54239 35956 ft 467 kts 212°
2026-04-29 22:51 -20.67147 -50.58826 35960 ft 468 kts 212°
2026-04-29 22:52 -20.72943 -50.62003 35957 ft 468 kts 212°
2026-04-29 22:52 -20.78693 -50.65164 35959 ft 468 kts 213°
2026-04-29 22:53 -20.81597 -50.66755 35389 ft 466 kts 212°
2026-04-29 22:53 -20.84492 -50.68351 34151 ft 471 kts 213°
2026-04-29 22:53 -20.87409 -50.69996 32818 ft 476 kts 213°
2026-04-29 22:53 -20.90356 -50.71661 31680 ft 482 kts 212°
2026-04-29 22:54 -20.93336 -50.73348 31058 ft 485 kts 212°
2026-04-29 22:54 -20.96317 -50.75037 30585 ft 483 kts 212°
2026-04-29 22:54 -20.99286 -50.76722 30097 ft 480 kts 212°
2026-04-29 22:54 -21.02228 -50.78390 29587 ft 477 kts 212°
2026-04-29 22:55 -21.05120 -50.80031 29014 ft 474 kts 212°
2026-04-29 22:55 -21.08020 -50.81677 28454 ft 470 kts 212°
2026-04-29 22:55 -21.10903 -50.83309 27744 ft 467 kts 212°
2026-04-29 22:55 -21.13770 -50.84936 27116 ft 463 kts 212°
2026-04-29 22:56 -21.16606 -50.86561 26529 ft 460 kts 212°
2026-04-29 22:56 -21.19424 -50.88168 25963 ft 457 kts 212°
2026-04-29 22:56 -21.22197 -50.89745 25419 ft 454 kts 212°
2026-04-29 22:56 -21.24981 -50.91335 24888 ft 451 kts 212°
2026-04-29 22:57 -21.27744 -50.92910 24375 ft 448 kts 212°
2026-04-29 22:57 -21.30490 -50.94473 23882 ft 446 kts 212°
2026-04-29 22:57 -21.33222 -50.96029 23380 ft 443 kts 212°
2026-04-29 22:57 -21.35937 -50.97580 22866 ft 439 kts 212°
2026-04-29 22:58 -21.38627 -50.99111 22372 ft 436 kts 211°
2026-04-29 22:58 -21.41296 -51.00634 21909 ft 432 kts 211°
2026-04-29 22:58 -21.43949 -51.02147 21451 ft 429 kts 211°
2026-04-29 22:58 -21.46547 -51.03627 21024 ft 426 kts 211°
2026-04-29 22:59 -21.49159 -51.05120 20597 ft 423 kts 211°
2026-04-29 22:59 -21.51760 -51.06598 20030 ft 420 kts 211°
2026-04-29 22:59 -21.54334 -51.08056 19340 ft 416 kts 211°
2026-04-29 22:59 -21.56880 -51.09505 18672 ft 412 kts 211°
2026-04-29 23:00 -21.59395 -51.10947 17986 ft 408 kts 211°
2026-04-29 23:00 -21.61855 -51.12355 17291 ft 403 kts 211°
2026-04-29 23:00 -21.64327 -51.13756 16596 ft 400 kts 210°
2026-04-29 23:00 -21.66781 -51.15136 15922 ft 396 kts 210°
2026-04-29 23:01 -21.69217 -51.16501 15272 ft 392 kts 210°
2026-04-29 23:01 -21.71616 -51.17861 14635 ft 388 kts 212°
2026-04-29 23:01 -21.73746 -51.19585 13991 ft 380 kts 225°
2026-04-29 23:01 -21.75607 -51.21580 13327 ft 375 kts 230°
2026-04-29 23:02 -21.77274 -51.23720 12667 ft 370 kts 234°
2026-04-29 23:02 -21.78845 -51.25899 12012 ft 366 kts 235°
2026-04-29 23:02 -21.80390 -51.28058 11370 ft 362 kts 234°
2026-04-29 23:02 -21.81946 -51.30174 10765 ft 358 kts 233°
2026-04-29 23:03 -21.83477 -51.32196 10423 ft 346 kts 233°
2026-04-29 23:03 -21.84961 -51.34158 10260 ft 330 kts 233°
2026-04-29 23:03 -21.86373 -51.36028 10182 ft 314 kts 233°
2026-04-29 23:03 -21.87716 -51.37806 10140 ft 299 kts 234°
2026-04-29 23:04 -21.89000 -51.39505 10119 ft 285 kts 234°
2026-04-29 23:04 -21.90242 -51.41151 9819 ft 284 kts 233°
2026-04-29 23:04 -21.91488 -51.42802 9496 ft 283 kts 233°
2026-04-29 23:04 -21.92718 -51.44434 9134 ft 275 kts 233°
2026-04-29 23:05 -21.93893 -51.45968 9067 ft 256 kts 233°
2026-04-29 23:05 -21.94994 -51.47399 8990 ft 240 kts 233°
2026-04-29 23:05 -21.96029 -51.48751 8899 ft 225 kts 234°
2026-04-29 23:05 -21.96993 -51.50020 8507 ft 217 kts 234°
2026-04-29 23:06 -21.97930 -51.51271 8171 ft 207 kts 234°
2026-04-29 23:06 -21.98803 -51.52436 7944 ft 194 kts 234°
2026-04-29 23:06 -21.99644 -51.53559 7563 ft 189 kts 235°
2026-04-29 23:06 -22.00471 -51.54662 6945 ft 190 kts 234°
2026-04-29 23:07 -22.01297 -51.55763 6435 ft 188 kts 234°
2026-04-29 23:07 -22.02104 -51.56842 5910 ft 186 kts 234°
2026-04-29 23:07 -22.02911 -51.57934 5351 ft 186 kts 234°
2026-04-29 23:07 -22.03719 -51.59018 4816 ft 185 kts 233°
2026-04-29 23:08 -22.04522 -51.60084 4372 ft 178 kts 233°
2026-04-29 23:08 -22.05271 -51.61084 4170 ft 168 kts 233°
2026-04-29 23:08 -22.06006 -51.62064 4073 ft 166 kts 232°
2026-04-29 23:08 -22.06937 -51.62748 3853 ft 168 kts 190°
2026-04-29 23:09 -22.08083 -51.62694 3673 ft 162 kts 173°
2026-04-29 23:09 -22.08809 -51.62568 3603 ft 158 kts 170°
2026-04-29 23:09 -22.10226 -51.62242 3531 ft 155 kts 168°
2026-04-29 23:09 -22.11294 -51.61985 3521 ft 160 kts 168°
2026-04-29 23:10 -22.12406 -51.61725 3518 ft 166 kts 168°
2026-04-29 23:10 -22.13555 -51.61462 3522 ft 171 kts 168°
2026-04-29 23:10 -22.14640 -51.60950 3502 ft 174 kts 135°
2026-04-29 23:10 -22.15125 -51.59805 3457 ft 165 kts 104°
2026-04-29 23:11 -22.15351 -51.58621 3442 ft 156 kts 98°
2026-04-29 23:11 -22.15502 -51.57506 3354 ft 146 kts 97°
2026-04-29 23:11 -22.15629 -51.56440 3163 ft 139 kts 97°
2026-04-29 23:11 -22.15746 -51.55393 3071 ft 141 kts 97°
2026-04-29 23:12 -22.15867 -51.54340 3036 ft 143 kts 97°
2026-04-29 23:12 -22.16002 -51.53269 3020 ft 144 kts 98°
2026-04-29 23:12 -22.16143 -51.52200 3019 ft 144 kts 99°
2026-04-29 23:12 -22.16290 -51.51123 2887 ft 146 kts 99°
2026-04-29 23:13 -22.16438 -51.50057 2713 ft 140 kts 99°
2026-04-29 23:13 -22.16580 -51.49024 2534 ft 139 kts 101°
2026-04-29 23:13 -22.16724 -51.47993 2379 ft 138 kts 101°
2026-04-29 23:13 -22.16827 -51.47308 2232 ft 142 kts 101°
2026-04-29 23:14 -22.16973 -51.46263 1959 ft 140 kts 101°
2026-04-29 23:14 -22.17115 -51.45232 1737 ft 137 kts 98°
2026-04-29 23:14 -22.17253 -51.44232 1605 ft 133 kts 97°
2026-04-29 23:14 -22.17402 -51.43243 1437 ft 130 kts 98°
2026-04-29 23:15 -22.17488 -51.42580 1461 ft 28 kts 98°
2026-04-29 23:15 -22.17511 -51.42414 1467 ft 21 kts 98°
2026-04-29 23:15 -22.17529 -51.42291 1469 ft 13 kts 106°
2026-04-29 23:15 -22.17581 -51.42226 1474 ft 9 kts 138°
2026-04-29 23:16 -22.17611 -51.42198 1470 ft 9 kts 140°
2026-04-29 23:16 -22.17656 -51.42155 1475 ft 8 kts 138°
2026-04-29 23:16 -22.17695 -51.42115 1471 ft 7 kts 130°
2026-04-29 23:16 -22.17710 -51.42081 1474 ft 2 kts 103°
2026-04-29 23:17 -22.17712 -51.42070 1474 ft 1 kts 101°
2026-04-29 23:17 -22.17714 -51.42060 1477 ft 2 kts 100°
2026-04-29 23:17 -22.17716 -51.42047 1480 ft 2 kts 100°
2026-04-29 23:17 -22.17724 -51.42017 1471 ft 6 kts 113°
2026-04-29 23:18 -22.17741 -51.41974 1473 ft 8 kts 107°
2026-04-29 23:18 -22.17749 -51.41907 1483 ft 3 kts 82°
2026-04-29 23:18 -22.17749 -51.41891 1483 ft 3 kts 111°
2026-04-29 23:18 -22.17756 -51.41884 1478 ft 1 kts 153°
2026-04-29 23:19 -22.17764 -51.41881 1482 ft 1 kts 159°
2026-04-29 23:19 -22.17774 -51.41877 1480 ft 2 kts 160°
2026-04-29 23:19 -22.17783 -51.41874 1476 ft 0 kts 165°
2026-04-29 23:22 -22.17783 -51.41873 1476 ft 0 kts 165°
2026-04-29 23:22 -22.17776 -51.41885 1473 ft 0 kts
2026-04-29 23:30 -22.17777 -51.41885 1473 ft 0 kts
2026-04-29 23:40 -22.17778 -51.41885 1485 ft 0 kts
2026-04-29 23:42 -22.17778 -51.41886 1485 ft 0 kts
2026-04-29 23:50 -22.17779 -51.41886 1485 ft 0 kts
2026-04-29 23:59 -22.17780 -51.41886 1485 ft 0 kts
2026-04-30 00:08 -22.17781 -51.41886 1485 ft 0 kts
2026-04-30 00:17 -22.17782 -51.41886 1485 ft 0 kts
2026-04-30 00:27 -22.17783 -51.41886 1485 ft 0 kts
2026-04-30 00:36 -22.17784 -51.41886 1485 ft 0 kts